User: anonymous   Login
Location: *
(40.4270°N, 9.4940°E)
Time: 21:20:53
(UTC+02:00)
Language:

Okean 2 - Orbit

View from above orbital plane
View from above orbital plane
View from above satellite
View from above satellite

Ground track
Ground track

The orbit data is extracted from the following two-line orbital elements,

1 20510U 90018A   17178.96332670 +.00000384 +00000-0 +29502-4 0  9993
2 20510 082.5151 161.1103 0010963 311.4241 072.0572 14.98922932461946
Epoch (UTC): 27 June 2017 23:07:11
Eccentricity: 0.0010963
inclination: 82.5151°
perigee height: 562 km
apogee height: 578 km
right ascension of ascending node: 161.1103°
argument of perigee: 311.4241°
revolutions per day: 14.98922932
mean anomaly at epoch: 72.0572°
orbit number at epoch: 46194

The dashed part of the orbit path shows where the satellite is in the earth's shadow,  

DLR